Overview Statistics Trail Chart Weather Telemetry Raw packets
 

This is the latest recevied weather packets stored in our database for station/object K6LOT-13. If no packets are shown the sender has not sent any weather packets the latest 10 day(s).

<< 24 25 26 27 28 29 30 >>
Time Temp. Humidity Pressure Rain* Wind** Luminosity Snow
1788460451 27.78° C 56% 1015.7 hPa 0 mm - - -
1788460444 27.22° C 56% 1015.8 hPa 0 mm - - -
1788460408 27.78° C 55% 1015.7 hPa 0 mm - - -
1788459503 27.22° C 57% 1015.8 hPa 0 mm - - -
1788459485 27.22° C 56% 1015.9 hPa 0 mm - - -
1788458601 26.67° C 59% 1015.9 hPa 0 mm - - -
1788458596 27.22° C 59% 1015.9 hPa 0 mm - - -
1788457961 26.67° C 61% 1015.9 hPa 83.82 mm - - -
1788457955 26.67° C 59% 1015.9 hPa 83.82 mm - - -
1788457342 26.11° C 62% 1016 hPa 83.82 mm - - -
1788457047 25° C 64% 1016 hPa 83.82 mm - - -
1788457036 25.56° C 63% 1016 hPa 83.82 mm - - -
1788456419 24.44° C 66% 1016 hPa 83.82 mm - - -
1788455807 23.33° C 68% 1016 hPa 83.82 mm - - -
1788455500 23.33° C 68% 1016.1 hPa 83.82 mm - - -
1788455194 22.78° C 69% 1016.1 hPa 83.82 mm - - -
1788454893 22.22° C 71% 1016 hPa 83.82 mm - - -
1788454888 22.78° C 70% 1016.1 hPa 83.82 mm - - -
1788453967 21.67° C 73% 1016 hPa 0 mm - - -
1788453660 21.67° C 74% 1016 hPa 0 mm - - -
1788453350 21.11° C 74% 1016 hPa 0 mm - - -
1788452738 21.11° C 74% 1016 hPa 0 mm - - -
1788452125 20.56° C 75% 1016 hPa 0 mm - - -
1788451844 20.56° C 75% 1016.1 hPa 0 mm - - -
1788451819 20.56° C 75% 1016.1 hPa 0 mm - - -

* Rain latest hour (hover to see other rain measurements)
** Current wind speed in m/s (hover to see current wind gust speed)